COSMOS 1275 DEB, 12747

Orbit data source: Space-Track

COSMOS 1275 DEB, 12747 is space debris in LEO originally from a launch on Thu, 04 Jun 1981 UTC launched from the Plesetsk Missile And Space Complex (PKMTR). Debris objects in space refer to the collection of defunct objects orbiting the Earth. Examples of debris include non-operational satellites, rocket bodies, and fragments generated from explosions, collisions, or faulty payload assembly.

Loading next visibility...
Identifier
12747, 1981-053CQ
Orbit
LEO
Country
Flag of CISCIS
Related business
Manufacturer
Unknown
Mission
Spacecraft
Bus & Motor
Unknown
Mass
Unknown
Launch date (UTC)
1981-06-04 (45 years ago)
Launch vehicle
Unknown
Launch site
Plesetsk Missile And Space Complex (PKMTR)
Object type
Payload
Rocket body
Debris
Shape & HBR
Unknown shape, 0.1 m
Radar Cross Section
Medium (>0.1 m² and <1 m²)

Expand to show TLE details & history
Last TLE update: 1 day ago

TLE from 1 day ago
0 COSMOS 1275 DEB
1 12747U 81053CQ  26149.42308525  .00000742  00000-0  87276-3 0  9995
2 12747  83.0647 135.4620 0129075 112.4231  39.2929 13.63267768216462
Epoch: 2026-05-29T10:09Z
TLE epoch observation values (Epoch: 2026-05-29T10:09:14.565Z)
Latitude
27.15732°
Longitude
-87.36119°
Altitude
953.69 km
Speed
7.414 km/s
True Right ascension
20h 47m 36s
True Declination
27° 01' 18"
Sunlit
Object was in daylight at epoch
Visualization orbit readout
Latitude
Unknown
Longitude
Unknown
Altitude
Unknown
Speed
Unknown
Apparent Right ascension
Unknown
Apparent Declination
Unknown
Sunlit
N/A
Visualization observer readout
Local Sidereal Time
21:58:13
Azimuth
Unknown
Elevation
Unknown
Doppler factor
Unknown
Orbital elements
Apogee altitude
1,116.504 km
Perigee altitude
925.495 km
Semi-major axis
7,399.137 km
Eccentricity
0.01291
Inclination
83.0647°
RAAN
135.462°
Arg. of periapsis
112.4231°
True anomaly
40.24138°
Mean anomaly
39.2929°
Eccentric anomaly
39.76595°
Mean motion
3.41014 °/min
Orbital period
105.57 mins
BSTAR
0.00087276
Loading maneuver chart data...
Computing Atmospheric mass density...
Loading historical data...
Loading historical data...
Loading historical data...
Loading historical data...
Loading historical data...
Loading historical data...
Loading historical data...

Documentation

Showing up to 5 results
|